TimeCDT,TemperatureF,Dew PointF,Humidity,Sea Level PressureIn,VisibilityMPH,Wind Direction,Wind SpeedMPH,Gust SpeedMPH,PrecipitationIn,Events,Conditions,WindDirDegrees,DateUTC
12:54 AM,71.1,57.9,63,29.75,10.0,SSE,5.8,-,N/A,,Clear,160,2012-04-03 05:54:00
1:54 AM,72.0,57.9,61,29.76,10.0,South,8.1,-,N/A,,Clear,170,2012-04-03 06:54:00
2:54 AM,71.1,57.0,61,29.73,10.0,South,6.9,-,N/A,,Clear,180,2012-04-03 07:54:00
3:54 AM,66.9,57.0,70,29.76,10.0,SSW,9.2,-,N/A,,Clear,200,2012-04-03 08:54:00
4:54 AM,68.0,55.9,65,29.78,10.0,SSW,10.4,-,N/A,,Clear,210,2012-04-03 09:54:00
5:54 AM,64.9,55.0,70,29.78,10.0,SW,5.8,-,N/A,,Clear,230,2012-04-03 10:54:00
6:54 AM,62.1,54.0,75,29.80,10.0,South,6.9,-,N/A,,Clear,190,2012-04-03 11:54:00
7:54 AM,66.0,57.0,73,29.83,10.0,SW,5.8,-,N/A,,Clear,220,2012-04-03 12:54:00
8:54 AM,70.0,57.0,63,29.82,10.0,WSW,10.4,-,N/A,,Clear,240,2012-04-03 13:54:00
9:54 AM,72.0,57.0,59,29.83,10.0,WSW,5.8,-,N/A,,Clear,250,2012-04-03 14:54:00
10:54 AM,75.0,57.9,55,29.84,10.0,SW,4.6,-,N/A,,Clear,220,2012-04-03 15:54:00
11:54 AM,78.1,55.9,46,29.81,10.0,Variable,3.5,-,N/A,,Clear,0,2012-04-03 16:54:00
12:54 PM,81.0,57.0,44,29.78,10.0,East,5.8,-,N/A,,Clear,90,2012-04-03 17:54:00
1:54 PM,81.0,59.0,47,29.77,10.0,South,9.2,-,N/A,,Clear,180,2012-04-03 18:54:00
2:54 PM,79.0,57.9,48,29.78,10.0,South,11.5,-,N/A,,Clear,190,2012-04-03 19:54:00
3:54 PM,75.9,59.0,56,29.78,10.0,SW,8.1,-,N/A,,Clear,230,2012-04-03 20:54:00
4:54 PM,75.0,59.0,57,29.77,10.0,SW,8.1,-,N/A,,Scattered Clouds,220,2012-04-03 21:54:00
5:54 PM,75.9,60.1,58,29.77,10.0,SW,5.8,-,N/A,,Partly Cloudy,230,2012-04-03 22:54:00
6:54 PM,73.0,61.0,66,29.77,10.0,SW,10.4,-,N/A,,Mostly Cloudy,220,2012-04-03 23:54:00
7:54 PM,69.8,59.0,68,29.81,10.0,West,4.6,-,N/A,,Overcast,260,2012-04-04 00:54:00
8:54 PM,66.9,55.0,66,29.81,10.0,North,9.2,-,N/A,,Mostly Cloudy,10,2012-04-04 01:54:00
9:54 PM,64.9,55.0,70,29.82,10.0,NNE,11.5,-,N/A,,Mostly Cloudy,30,2012-04-04 02:54:00
10:54 PM,63.0,55.0,75,29.81,10.0,NE,6.9,-,N/A,,Mostly Cloudy,40,2012-04-04 03:54:00
11:54 PM,62.1,55.0,78,29.81,9.0,North,10.4,-,N/A,,Overcast,10,2012-04-04 04:54:00